Weather History for Macae, Brazil

Change the Weather History Date:

Sunday, July 21, 2013

  Actual Average Record
Temperature  
Mean Temperature 80 °F -  
Max Temperature 96 °F 76 °F 96 °F (2013)
Min Temperature 64 °F 60 °F 53 °F (2007)
Cooling Degree Days 15    
Growing Degree Days 30 (Base 50)    
Moisture  
Dew Point 68 °F    
Average Humidity 75    
Maximum Humidity 94    
Minimum Humidity 37    
Precipitation  
Precipitation 0.00 in - - ()
Sea Level Pressure  
Sea Level Pressure 29.88 in    
Wind  
Wind Speed 6 mph ()    
Max Wind Speed 13 mph    
Max Gust Speed -    
Visibility 5.0 miles    
Events      
Averages and records for this station are not official NWS values.
T = Trace of Precipitation, MM = Missing Value Source: Averaged Metar Reports

Daily Weather History Graph

Daily Weather History Graph

Search for Another Location

Airport:

Trip Planner

Search our weather history database for the weather conditions in past years. The results will help you decide how hot, cold, wet, or windy it might be!

Date:

Astronomy

Jul. 21, 2013 Rise Set
Actual Time 6:25 AM BRT 5:22 PM BRT
Civil Twilight 6:01 AM BRT 5:46 PM BRT
Nautical Twilight 5:33 AM BRT 6:13 PM BRT
Astronomical Twilight 5:06 AM BRT 6:40 PM BRT
Moon 4:23 PM BRT (7/21) 4:57 AM BRT (7/21)
Length of Visible Light 11h 45m
Length of Day
10h 57m
Waxing Gibbous, 98% of the Moon is Illuminated
Jul 21
Waxing Gibbous
Jul 22
Full
Jul 29
Last Quarter
Aug 6
New
Aug 14
First Quarter

Hourly Weather History & Observations

Time (BRT) Temp. Heat Index Dew Point Humidity Pressure Visibility Wind Dir Wind Speed Gust Speed Precip Events Conditions
12:00 AM 71.6 °F - 69.8 °F 94% 29.83 in - NE 11.5 mph - N/A   Clear
1:00 AM 71.6 °F - 69.8 °F 94% 29.83 in - NE 12.7 mph - N/A   Clear
2:00 AM 71.6 °F - 69.8 °F 94% 29.83 in - NE 10.4 mph - N/A   Clear
3:00 AM 69.8 °F - 68.0 °F 94% 29.83 in - NNE 4.6 mph - N/A   Clear
4:00 AM 69.8 °F - 68.0 °F 94% 29.83 in - East 4.6 mph - N/A   Clear
5:00 AM 69.8 °F - 68.0 °F 94% 29.86 in - NE 5.8 mph - N/A   Clear
6:00 AM 64.4 °F - 60.8 °F 88% 29.92 in - North 2.3 mph - N/A   Clear
7:00 AM 66.2 °F - 64.4 °F 94% 29.92 in - NNE 3.5 mph - N/A   Clear
8:00 AM 71.6 °F - 69.8 °F 94% 29.95 in - NE 8.1 mph - N/A   Clear
9:00 AM 82.4 °F 86.3 °F 69.8 °F 66% 29.92 in - NE 2.3 mph - N/A   Clear
10:00 AM 86.0 °F 89.4 °F 68.0 °F 55% 29.92 in - NE 9.2 mph - N/A   Clear
11:00 AM 91.4 °F 94.0 °F 66.2 °F 43% 29.92 in - ENE 11.5 mph - N/A   Clear
12:00 PM 95.0 °F 98.5 °F 66.2 °F 39% 29.89 in - ENE 8.1 mph - N/A   Clear
1:00 PM 95.0 °F 98.5 °F 66.2 °F 39% 29.86 in - North 5.8 mph - N/A   Clear
2:00 PM 96.8 °F 100.7 °F 66.2 °F 37% 29.86 in - North 4.6 mph - N/A   Clear
3:00 PM 89.6 °F 96.2 °F 71.6 °F 55% 29.86 in 5.0 mi SSW 11.5 mph - N/A   Unknown
4:00 PM 86.0 °F 90.4 °F 69.8 °F 58% 29.86 in 5.0 mi SSW 9.2 mph - N/A   Unknown
5:00 PM 80.6 °F 83.2 °F 68.0 °F 65% 29.86 in 5.0 mi SW 3.5 mph - N/A   Unknown
6:00 PM 77.0 °F - 69.8 °F 78% 29.89 in 5.0 mi ESE 3.5 mph - N/A   Unknown
7:00 PM 73.4 °F - 68.0 °F 83% 29.89 in - East 2.3 mph - N/A   Clear
8:00 PM 77.0 °F - 69.8 °F 78% 29.92 in - East 8.1 mph - N/A   Clear
9:00 PM 73.4 °F - 69.8 °F 88% 29.92 in - NE 3.5 mph - N/A   Clear
10:00 PM 73.4 °F - 69.8 °F 88% 29.92 in - NE 3.5 mph - N/A   Clear
11:00 PM 73.4 °F - 69.8 °F 88% 29.92 in - NE 4.6 mph - N/A   Clear